This is the latest recevied weather packets stored in our database for station/object N5GMJ. If no packets are shown the sender has not sent any weather packets the latest 10 day(s).
| Time | Temp. | Humidity | Pressure | Rain* | Wind** | Luminosity | Snow |
|---|---|---|---|---|---|---|---|
| 1777499049 | 16.11° C | 78% | 1015.2 hPa | 0 mm | - | - | - |
| 1777498744 | 16.11° C | 79% | 1015.4 hPa | 0 mm | - | - | - |
| 1777498441 | 16.11° C | 79% | 1015.4 hPa | 0 mm | - | - | - |
| 1777498138 | 16.67° C | 78% | 1015.1 hPa | 0 mm | - | - | - |
| 1777497835 | 16.67° C | 78% | 1014.8 hPa | 0 mm | - | - | - |
| 1777497531 | 16.67° C | 78% | 1015 hPa | 0 mm | - | - | - |
| 1777497227 | 16.67° C | 78% | 1014.7 hPa | 0 mm | - | - | - |
| 1777496924 | 16.67° C | 77% | 1015 hPa | 0 mm | - | - | - |
| 1777496621 | 16.67° C | 77% | 1014.9 hPa | 0 mm | - | - | - |
| 1777496318 | 16.67° C | 78% | 1014.6 hPa | 0 mm | - | - | - |
| 1777496013 | 16.67° C | 77% | 1015 hPa | 0 mm | - | - | - |
| 1777495710 | 16.67° C | 77% | 1015 hPa | 0 mm | - | - | - |
| 1777495406 | 16.67° C | 76% | 1015.2 hPa | 0 mm | - | - | - |
| 1777495102 | 17.22° C | 76% | 1015.2 hPa | 0 mm | - | - | - |
| 1777494800 | 17.22° C | 75% | 1015.2 hPa | 0 mm | - | - | - |
| 1777494497 | 17.78° C | 74% | 1015.3 hPa | 0 mm | - | - | - |
| 1777494194 | 17.78° C | 74% | 1015.3 hPa | 0 mm | - | - | - |
| 1777493891 | 18.33° C | 74% | 1015.2 hPa | 0 mm | - | - | - |
| 1777493589 | 18.33° C | 73% | 1015.3 hPa | 0 mm | - | - | - |
| 1777493287 | 17.78° C | 73% | 1015.4 hPa | 0 mm | - | - | - |
| 1777492982 | 17.78° C | 76% | 1015.8 hPa | 0 mm | - | - | - |
| 1777492680 | 17.78° C | 73% | 1015.6 hPa | 0 mm | - | - | - |
| 1777492379 | 18.33° C | 72% | 1015.7 hPa | 0 mm | - | - | - |
| 1777492077 | 18.33° C | 75% | 1015.9 hPa | 0 mm | - | - | - |
| 1777491773 | 18.33° C | 73% | 1015.9 hPa | 0 mm | - | - | - |
* Rain latest hour (hover to see other rain measurements)
** Current wind speed in m/s (hover to see current wind gust speed)